sat.trackr.live / text

‹ back to catalog

SKYNET 4C

NORAD 20776 · 1990-079A

PAYLOAD ACTIVE UNKNOWN

§ Identity

Operator
Country
UK
Launch date
1990-08-30
Launch site
FRGUI
Launch vehicle
Mass (kg)
RCS (m²)
11.11

Purposes: comms

External: N2YO · Heavens-Above · Gunter

§ Orbital elements

Epoch: 2026-05-25T04:22:51.690144Z

Period
1,436.03 min
Inclination
13.3469°
Eccentricity
0.0002773
Mean motion
1.00276402 rev/d
Perigee alt
35,773.6 km
Apogee alt
35,797.0 km
Semi-major
42,163.4 km
B*
0.0000e+0
RAAN
349.9765°
Arg perigee
60.3170°
Mean anomaly
291.5741°
Rev number
13,065

§ Raw data

SKYNET 4C1 20776U 90079A   26145.18254271  .00000117  00000+0  00000+0 0  99922 20776  13.3469 349.9765 0002773  60.3170 291.5741  1.00276402130655

JSON: /api/v1/satellites/20776 · /tle

For live sub-satellite position, see the globe view (requires WebGL).

§ Visibility from observer

Set your observer location to see the next 7 days of passes ≥ 10°. The values pass through the URL so the page stays shareable.

No JS? Fill the form by hand. The geolocation button needs JavaScript.